TimeCST,TemperatureF,Dew PointF,Humidity,Sea Level PressureIn,VisibilityMPH,Wind Direction,Wind SpeedMPH,Gust SpeedMPH,PrecipitationIn,Events,Conditions,WindDirDegrees,DateUTC
12:52 AM,39.9,19.9,45,29.90,10.0,West,15.0,26.5,N/A,,Clear,270,2014-02-21 06:52:00
1:52 AM,39.0,19.9,46,29.94,10.0,West,15.0,-,N/A,,Clear,270,2014-02-21 07:52:00
2:52 AM,37.0,19.0,48,29.96,10.0,West,12.7,-,N/A,,Clear,270,2014-02-21 08:52:00
3:52 AM,36.0,19.9,52,29.98,10.0,West,12.7,21.9,N/A,,Clear,260,2014-02-21 09:52:00
4:52 AM,34.0,19.0,54,29.97,10.0,West,8.1,-,N/A,,Clear,260,2014-02-21 10:52:00
5:52 AM,34.0,19.9,56,29.99,10.0,West,10.4,-,N/A,,Clear,260,2014-02-21 11:52:00
6:52 AM,32.0,19.9,61,29.99,10.0,West,6.9,-,N/A,,Clear,260,2014-02-21 12:52:00
7:52 AM,33.1,21.0,61,30.02,10.0,WSW,8.1,-,N/A,,Clear,240,2014-02-21 13:52:00
8:52 AM,39.0,21.0,49,30.02,10.0,WSW,9.2,-,N/A,,Clear,250,2014-02-21 14:52:00
9:52 AM,45.0,19.9,37,30.02,10.0,West,11.5,-,N/A,,Clear,260,2014-02-21 15:52:00
10:52 AM,48.0,19.0,32,30.00,10.0,WSW,9.2,-,N/A,,Clear,250,2014-02-21 16:52:00
11:52 AM,52.0,17.1,25,29.99,10.0,WSW,12.7,21.9,N/A,,Clear,250,2014-02-21 17:52:00
12:52 PM,54.0,15.1,22,29.97,10.0,West,17.3,26.5,N/A,,Clear,260,2014-02-21 18:52:00
1:52 PM,55.9,14.0,19,29.94,10.0,WSW,19.6,-,N/A,,Clear,240,2014-02-21 19:52:00
2:52 PM,57.9,12.9,17,29.93,10.0,WSW,17.3,28.8,N/A,,Clear,240,2014-02-21 20:52:00
3:52 PM,57.9,10.0,15,29.93,10.0,WSW,23.0,31.1,N/A,,Clear,240,2014-02-21 21:52:00
4:52 PM,57.0,10.9,16,29.92,10.0,WSW,20.7,31.1,N/A,,Clear,240,2014-02-21 22:52:00
5:52 PM,52.0,15.1,23,29.93,10.0,SW,10.4,-,N/A,,Clear,220,2014-02-21 23:52:00
6:52 PM,46.0,16.0,30,29.95,10.0,SSW,10.4,-,N/A,,Clear,210,2014-02-22 00:52:00
7:52 PM,42.1,17.1,37,29.96,10.0,South,9.2,-,N/A,,Clear,190,2014-02-22 01:52:00
8:52 PM,44.1,17.1,34,29.97,10.0,SSW,10.4,-,N/A,,Clear,210,2014-02-22 02:52:00
9:52 PM,42.1,17.1,37,29.99,10.0,SW,9.2,-,N/A,,Clear,220,2014-02-22 03:52:00
10:52 PM,39.9,18.0,41,29.98,10.0,SSW,9.2,-,N/A,,Clear,200,2014-02-22 04:52:00
11:52 PM,37.9,18.0,45,29.97,10.0,South,11.5,-,N/A,,Clear,190,2014-02-22 05:52:00